Погода в Гарден-Хилл

Канада     53°52′49″N   94°38′51″W
темп.,
°C
ветер,
м/с
пор.,
м/с
влажн.,
%
обл.,
%
осадки,
мм/ч
давл.,
гПа
погр.,
м
16 мая, вс
вс1601:00+2юв4119299 0.0 1015210
04:00+2юв41197100 0.0 1012180
07:00+4ююв4896100 0.2 1009147
10:00+7юз41098100 2.6 1006284
13:00+10зюз4892100 5.4 1005455
16:00+12зсз51076100 1.2 1006954
19:00+11сз813474 1.3 1009824
22:00+3ссз510725 0.0 1015529
17 мая, пн
пн1701:000с378318 0.0 1018299
04:00−3ссв25915 0.0 1020129
07:00−2всв2380100 0.0 1022254
10:00+3юв3358100 0.0 1021450
13:00+7ююв4746100 0.0 1018533
16:00+10юв51143100 0.1 1013401
19:00+13в454945 0.1 1009157
22:00+6в488084 0.5 1009100
18 мая, вт
вт1801:00+6юв359679 0.5 100762
04:00+12ююз61570100 0.0 1006351
07:00+14ююз6166367 0.0 1006483
10:00+18ююз714545 0.0 1006715
13:00+21юз813405 0.0 10041202
16:00+23юз813360 0.0 10041552
19:00+21юз612440 0.0 10041449
22:00+15ююз613520 0.0 1005338
19 мая, ср
ср1901:00+14ю5136710 0.0 1005378
04:00+13ю6147145 0.0 1005401
07:00+13ю61372100 0.0 1005426
10:00+16ююз7126916 0.0 1005767
13:00+19юз61263100 0.0 10041218
16:00+16зюз51068100 0.0 1006655
19:00+18з694217 0.0 10061024
22:00+11сз7126617 0.0 1011367
20 мая, чт
чт2001:00+5с4886100 0.0 1016308
04:00+4с4581100 0.0 1018417
07:00+3ссв4680100 0.0 1020455
10:00+3ссв5774100 0.0 1021491
13:00+4ссв5765100 0.0 1022618
16:00+7ссв5756100 0.0 1022741
19:00+4ссв5976100 0.8 1024545
22:00+1ссв51091100 1.1 1026473